Location: Hylvaty SDH
(49.9612°N, 16.4057°E)
Time: 01:34:23
(UTC+01:00)

Vanguard 2 - Visible Passes

Search period start: 16 January 2021 00:00
Search period end: 26 January 2021 00:00
Orbit: 553 x 2937 km, 32.9° (Epoch: 15 January)

Date Brightness Start Highest point End Pass type
(mag) Time Alt. Az. Time Alt. Az. Time Alt. Az.
16 Jan 9.9 19:40:10 10° SSW 19:43:13 19° S 19:43:13 19° S visible
17 Jan 10.0 19:57:28 10° SW 19:59:59 18° SSW 19:59:59 18° SSW visible
18 Jan 10.0 18:10:29 10° S 18:12:21 12° SSE 18:14:28 10° SE visible
18 Jan 10.1 20:14:55 10° SW 20:16:45 16° SSW 20:16:45 16° SSW visible
19 Jan 9.9 18:27:04 10° S 18:29:40 13° SSE 18:32:08 11° SE visible
19 Jan 10.3 20:32:32 10° SW 20:33:33 13° SW 20:33:33 13° SW visible
20 Jan 9.8 18:44:08 10° SSW 18:47:02 15° SSE 18:48:56 13° SSE visible
21 Jan 9.8 19:01:29 10° SSW 19:04:27 15° S 19:05:45 14° SSE visible
22 Jan 9.9 19:19:04 10° SSW 19:21:55 14° S 19:22:35 14° S visible
23 Jan 10.0 19:36:59 10° SSW 19:39:24 13° S 19:39:27 13° S visible
24 Jan 9.9 17:49:16 10° S 17:49:33 10° S 17:49:50 10° SSE visible
24 Jan 10.2 19:55:37 10° SSW 19:56:22 11° SSW 19:56:22 11° SSW visible
